When you browse on this site, cookies collect data to enhance your experience and personalize the content and advertising you see.
Visit our Privacy Policy to learn more. By continuing to use the site, you agree to this use of cookies and data.
  • In Spain
  • List of Countries
  • For 7 days
  • Water Temperature
  • Weather Map
  • Weather Widgets
  • user-avatar
    Login

    Hourly Weather Porto Alegre

    Today, 24 February, Monday

    Time Temperature Precipitation Wind Pressure Humidity
    00:00 +20°C° 0 mm 3 mps 758 mmHg 77%
    01:00 +20°C° 0 mm 2 mps 758 mmHg 79%
    02:00 +20°C° 0 mm 2 mps 757 mmHg 80%
    03:00 +20°C° 0 mm 1 mps 757 mmHg 80%
    04:00 +20°C° 0 mm 1 mps 757 mmHg 80%
    05:00 +20°C° 0 mm 1 mps 757 mmHg 80%
    06:00 +20°C° 0 mm 1 mps 757 mmHg 80%
    07:00 +22°C° 0 mm 1 mps 757 mmHg 72%
    08:00 +24°C° 0 mm 1 mps 757 mmHg 64%
    09:00 +26°C° 0 mm 1 mps 757 mmHg 55%
    10:00 +28°C° 0 mm 1 mps 757 mmHg 50%
    11:00 +30°C° 0 mm 1 mps 756 mmHg 45%
    12:00 +32°C° 0 mm 1 mps 756 mmHg 40%
    13:00 +33°C° 0 mm 1 mps 755 mmHg 38%
    14:00 +34°C° 0 mm 1 mps 755 mmHg 37%
    15:00 +34°C° 0 mm 1 mps 754 mmHg 35%
    16:00 +34°C° 0 mm 2 mps 753 mmHg 39%
    17:00 +32°C° 0 mm 2 mps 753 mmHg 43%
    18:00 +31°C° 0 mm 3 mps 753 mmHg 47%
    19:00 +30°C° 0 mm 3 mps 753 mmHg 52%
    20:00 +28°C° 0 mm 3 mps 753 mmHg 57%
    21:00 +27°C° 0 mm 3 mps 754 mmHg 63%
    22:00 +26°C° 0 mm 2 mps 754 mmHg 65%
    23:00 +26°C° 0 mm 2 mps 754 mmHg 68%

    Tomorrow, 25 February, Tuesday

    Time Temperature Precipitation Wind Pressure Humidity
    00:00 +25°C° 0 mm 1 mps 754 mmHg 70%
    01:00 +25°C° 0 mm 1 mps 754 mmHg 70%
    02:00 +25°C° 0 mm 1 mps 753 mmHg 70%
    03:00 +25°C° 0 mm 1 mps 753 mmHg 70%
    04:00 +24°C° 0 mm 1 mps 753 mmHg 71%
    05:00 +24°C° 0 mm 1 mps 754 mmHg 72%
    06:00 +24°C° 0 mm 1 mps 754 mmHg 73%
    07:00 +26°C° 0 mm 2 mps 754 mmHg 68%
    08:00 +27°C° 0 mm 2 mps 754 mmHg 63%
    09:00 +29°C° 0 mm 2 mps 755 mmHg 58%
    10:00 +31°C° 0 mm 2 mps 754 mmHg 52%
    11:00 +34°C° 0 mm 2 mps 754 mmHg 46%
    12:00 +36°C° 0 mm 2 mps 754 mmHg 40%
    13:00 +37°C° 0 mm 2 mps 753 mmHg 39%
    14:00 +37°C° 0 mm 2 mps 752 mmHg 37%
    15:00 +38°C° 0 mm 2 mps 752 mmHg 36%
    16:00 +36°C° 0.2 mm 2 mps 751 mmHg 42%
    17:00 +34°C° 0.2 mm 2 mps 751 mmHg 48%
    18:00 +31°C° 0.2 mm 2 mps 751 mmHg 55%
    19:00 +30°C° 0.9 mm 2 mps 751 mmHg 62%
    20:00 +28°C° 0.9 mm 3 mps 752 mmHg 69%
    21:00 +27°C° 0.9 mm 3 mps 752 mmHg 76%
    22:00 +26°C° 2.5 mm 2 mps 752 mmHg 80%
    23:00 +26°C° 2.5 mm 1 mps 752 mmHg 83%

    Day after tomorrow, 26 February, Wednesday

    Time Temperature Precipitation Wind Pressure Humidity
    00:00 +25°C° 2.5 mm 1 mps 753 mmHg 86%
    01:00 +25°C° 0.6 mm 1 mps 752 mmHg 87%
    02:00 +25°C° 0.6 mm 1 mps 752 mmHg 88%
    03:00 +25°C° 0.6 mm 1 mps 752 mmHg 89%
    04:00 +24°C° 0.2 mm 2 mps 752 mmHg 89%
    05:00 +24°C° 0.2 mm 3 mps 752 mmHg 89%
    06:00 +23°C° 0.2 mm 4 mps 753 mmHg 89%
    07:00 +23°C° 0.8 mm 4 mps 753 mmHg 88%
    08:00 +23°C° 0.8 mm 5 mps 753 mmHg 86%
    09:00 +23°C° 0.8 mm 6 mps 754 mmHg 85%
    10:00 +25°C° 0.1 mm 5 mps 754 mmHg 76%
    11:00 +26°C° 0.1 mm 5 mps 754 mmHg 67%
    12:00 +27°C° 0.1 mm 5 mps 754 mmHg 57%
    13:00 +28°C° 0 mm 5 mps 754 mmHg 54%
    14:00 +28°C° 0 mm 6 mps 754 mmHg 51%
    15:00 +28°C° 0 mm 6 mps 754 mmHg 47%
    16:00 +27°C° 0 mm 5 mps 754 mmHg 51%
    17:00 +26°C° 0 mm 5 mps 755 mmHg 55%
    18:00 +25°C° 0 mm 5 mps 755 mmHg 58%
    19:00 +23°C° 0 mm 4 mps 755 mmHg 63%
    20:00 +22°C° 0 mm 4 mps 756 mmHg 67%
    21:00 +21°C° 0 mm 3 mps 757 mmHg 71%
    22:00 +21°C° 0 mm 3 mps 757 mmHg 72%
    23:00 +21°C° 0 mm 3 mps 757 mmHg 72%

    27 February, Thursday

    Time Temperature Precipitation Wind Pressure Humidity
    00:00 +20°C° 0 mm 2 mps 757 mmHg 72%
    01:00 +20°C° 0 mm 2 mps 757 mmHg 73%
    02:00 +20°C° 0 mm 2 mps 756 mmHg 73%
    03:00 +21°C° 0 mm 1 mps 756 mmHg 73%
    04:00 +20°C° 0 mm 1 mps 756 mmHg 73%
    05:00 +20°C° 0 mm 1 mps 757 mmHg 74%
    06:00 +19°C° 0 mm 2 mps 757 mmHg 74%
    07:00 +20°C° 0 mm 2 mps 757 mmHg 69%
    08:00 +21°C° 0 mm 2 mps 757 mmHg 64%
    09:00 +23°C° 0 mm 2 mps 757 mmHg 59%
    10:00 +24°C° 0 mm 2 mps 757 mmHg 53%
    11:00 +26°C° 0 mm 2 mps 757 mmHg 47%
    12:00 +27°C° 0 mm 2 mps 757 mmHg 41%
    13:00 +27°C° 0 mm 2 mps 757 mmHg 41%
    14:00 +28°C° 0 mm 3 mps 756 mmHg 41%
    15:00 +28°C° 0 mm 3 mps 756 mmHg 41%
    16:00 +27°C° 0 mm 3 mps 756 mmHg 45%
    17:00 +26°C° 0 mm 4 mps 756 mmHg 49%
    18:00 +25°C° 0 mm 4 mps 756 mmHg 53%
    19:00 +23°C° 0 mm 4 mps 756 mmHg 58%
    20:00 +22°C° 0 mm 4 mps 757 mmHg 64%
    21:00 +21°C° 0 mm 3 mps 757 mmHg 70%
    22:00 +20°C° 0 mm 3 mps 757 mmHg 72%
    23:00 +20°C° 0 mm 2 mps 757 mmHg 74%

    28 February, Friday

    Time Temperature Precipitation Wind Pressure Humidity
    00:00 +20°C° 0 mm 2 mps 758 mmHg 76%
    01:00 +20°C° 0 mm 1 mps 757 mmHg 78%
    02:00 +20°C° 0 mm 1 mps 757 mmHg 79%
    03:00 +19°C° 0 mm 1 mps 757 mmHg 81%
    04:00 +19°C° 0 mm 1 mps 757 mmHg 82%
    05:00 +19°C° 0 mm 1 mps 757 mmHg 82%
    06:00 +19°C° 0 mm 1 mps 758 mmHg 83%
    07:00 +20°C° 0 mm 1 mps 758 mmHg 75%
    08:00 +22°C° 0 mm 1 mps 758 mmHg 67%
    09:00 +24°C° 0 mm 1 mps 758 mmHg 59%
    10:00 +26°C° 0 mm 1 mps 758 mmHg 53%
    11:00 +28°C° 0 mm 1 mps 758 mmHg 47%
    12:00 +30°C° 0 mm 1 mps 758 mmHg 41%
    13:00 +31°C° 0 mm 1 mps 757 mmHg 40%
    14:00 +31°C° 0 mm 2 mps 757 mmHg 39%
    15:00 +31°C° 0 mm 3 mps 757 mmHg 38%
    16:00 +30°C° 0 mm 4 mps 757 mmHg 42%
    17:00 +28°C° 0 mm 4 mps 757 mmHg 46%
    18:00 +27°C° 0 mm 5 mps 757 mmHg 50%
    19:00 +26°C° 0 mm 4 mps 758 mmHg 56%
    20:00 +25°C° 0 mm 4 mps 758 mmHg 62%
    21:00 +23°C° 0 mm 4 mps 759 mmHg 68%
    22:00 +22°C° 0 mm 3 mps 759 mmHg 71%
    23:00 +21°C° 0 mm 3 mps 759 mmHg 74%

    29 February, Saturday

    Time Temperature Precipitation Wind Pressure Humidity
    00:00 +21°C° 0 mm 2 mps 759 mmHg 77%
    01:00 +20°C° 0 mm 2 mps 759 mmHg 79%
    02:00 +21°C° 0 mm 1 mps 759 mmHg 81%
    03:00 +21°C° 0 mm 1 mps 758 mmHg 82%
    04:00 +20°C° 0 mm 1 mps 759 mmHg 82%
    05:00 +20°C° 0 mm 1 mps 759 mmHg 83%
    06:00 +18°C° 0 mm 0 mps 759 mmHg 83%
    07:00 +20°C° 0 mm 0 mps 760 mmHg 75%
    08:00 +22°C° 0 mm 0 mps 760 mmHg 67%
    09:00 +24°C° 0 mm 0 mps 760 mmHg 59%
    10:00 +28°C° 0 mm 1 mps 760 mmHg 52%
    11:00 +29°C° 0 mm 1 mps 760 mmHg 46%
    12:00 +31°C° 0 mm 1 mps 760 mmHg 40%
    13:00 +32°C° 0 mm 2 mps 760 mmHg 38%
    14:00 +33°C° 0 mm 3 mps 759 mmHg 36%
    15:00 +33°C° 0 mm 3 mps 759 mmHg 33%
    16:00 +32°C° 0 mm 4 mps 759 mmHg 41%
    17:00 +30°C° 0 mm 5 mps 759 mmHg 48%
    18:00 +29°C° 0 mm 5 mps 759 mmHg 56%
    19:00 +27°C° 0 mm 5 mps 760 mmHg 62%
    20:00 +26°C° 0 mm 5 mps 760 mmHg 68%
    21:00 +25°C° 0 mm 5 mps 761 mmHg 74%
    22:00 +23°C° 0 mm 5 mps 761 mmHg 75%
    23:00 +23°C° 0 mm 4 mps 761 mmHg 76%
    Show more